Location: Brabourne
(51.1333°N, 1.0000°E)
Time: 12:57:03
(UTC+00:00)

NOSS 3-1 (A) - Visible Passes

Search period start: 23 October 2021 00:00
Search period end: 02 November 2021 00:00
Orbit: 722 x 1490 km, 63.4° (Epoch: 16 October)

Date Brightness Start Highest point End Pass type
(mag) Time Alt. Az. Time Alt. Az. Time Alt. Az.
23 Oct 6.1 01:07:38 16° E 01:07:38 16° E 01:09:07 10° E visible
23 Oct 4.4 02:55:11 53° SSE 02:55:11 53° SSE 03:01:38 10° SE visible
23 Oct 4.9 04:42:44 25° WSW 04:43:20 25° WSW 04:49:58 10° SSW visible
23 Oct 3.5 18:35:04 10° SSW 18:40:07 45° ESE 18:42:43 29° ENE visible
23 Oct 4.1 20:25:28 10° WSW 20:30:12 48° WNW 20:30:12 48° WNW visible
24 Oct 5.5 02:13:24 26° SE 02:13:24 26° SE 02:16:42 10° SE visible
24 Oct 4.9 04:00:58 31° SW 04:00:58 31° SW 04:06:30 10° S visible
24 Oct 4.1 17:51:11 10° S 17:55:43 29° ESE 17:59:58 14° ENE visible
24 Oct 3.5 19:40:30 10° SW 19:45:59 69° NW 19:47:26 51° NNE visible
24 Oct 5.5 21:32:43 10° WNW 21:34:55 21° WNW 21:34:55 21° WNW visible
25 Oct 5.4 03:19:15 24° S 03:19:15 24° S 03:22:30 10° SSE visible
25 Oct 5.9 05:06:49 10° SW 05:06:49 10° SW 05:07:10 10° SW visible
25 Oct 3.2 18:55:45 10° SW 19:01:10 86° SE 19:04:32 29° NE visible
25 Oct 4.8 20:47:25 10° W 20:52:00 35° NW 20:52:00 35° NW visible
26 Oct 6.2 02:37:33 12° SSE 02:37:33 12° SSE 02:38:06 10° SSE visible
26 Oct 6.0 04:25:07 11° SSW 04:25:07 11° SSW 04:25:22 10° SSW visible
26 Oct 3.3 18:11:15 10° SSW 18:16:31 58° SE 18:21:31 16° NE visible
26 Oct 4.3 20:02:13 10° W 20:07:39 44° NNW 20:08:59 39° N visible
26 Oct 5.8 21:54:48 10° WNW 21:56:26 17° NW 21:56:26 17° NW visible
27 Oct 3.8 17:27:07 10° S 17:32:01 38° ESE 17:37:41 10° NE visible
27 Oct 3.9 19:17:08 10° WSW 19:22:37 57° NW 19:25:52 29° NNE visible
27 Oct 5.2 21:09:33 10° WNW 21:13:19 27° NNW 21:13:19 27° NNW visible
28 Oct 3.4 18:32:14 10° SW 18:37:42 78° NW 18:42:40 18° NE visible
28 Oct 4.8 20:24:15 10° W 20:29:37 33° NNW 20:30:07 33° N visible
28 Oct 6.1 22:16:40 10° NW 22:17:33 14° NW 22:17:33 14° NW visible
29 Oct 3.3 17:47:34 10° SSW 17:52:57 75° SE 17:59:23 10° NE visible
29 Oct 4.5 19:39:00 10° W 19:44:24 39° NNW 19:46:51 29° NNE visible
29 Oct 5.6 21:31:34 10° NW 21:34:18 22° NW 21:34:18 22° NW visible
30 Oct 3.6 17:03:13 10° SSW 17:08:21 49° ESE 17:14:24 10° NE visible
30 Oct 4.2 18:53:50 10° WSW 18:59:17 48° NNW 19:03:33 21° NE visible
30 Oct 5.1 20:46:22 10° WNW 20:50:59 29° NNW 20:50:59 29° NNW visible
30 Oct 6.3 22:38:15 10° NW 22:38:26 11° NW 22:38:26 11° NW visible
31 Oct 3.7 18:08:49 10° WSW 18:14:17 64° NW 18:20:13 13° NE visible
31 Oct 4.9 20:01:06 10° WNW 20:06:27 31° N 20:07:39 29° N visible
31 Oct 5.9 21:53:20 10° NW 21:55:05 18° NW 21:55:05 18° NW visible
01 Nov 3.4 17:24:00 10° SW 17:29:27 88° NW 17:36:00 10° NE visible
01 Nov 4.7 19:15:49 10° W 19:21:12 35° NNW 19:24:17 24° NNE visible
01 Nov 5.4 21:08:18 10° NW 21:11:43 25° NNW 21:11:43 25° NNW visible
